| time (UTC) | temp F | wind direction | speed MPH | gust MPH | rain 1hr in | rain 24hr in | rain mn in | humidity % | barometer mb |
| 20260503021503 | 60 | 166 | 0.0 | 1.0 | 0.00 | 0.82 | 0.00 | 90 | 1011.5 |
| 20260503021003 | 60 | 166 | 0.0 | 0.0 | 0.00 | 0.82 | 0.00 | 90 | 1011.7 |
| 20260503020503 | 60 | 166 | 0.0 | 0.0 | 0.00 | 0.82 | 0.00 | 90 | 1011.8 |
| 20260503015003 | 60 | 166 | 0.0 | 2.0 | 0.00 | 0.82 | 0.00 | 90 | 1012.1 |
| 20260503014504 | 60 | 166 | 0.0 | 0.0 | 0.00 | 0.82 | 0.00 | 90 | 1012.0 |
| 20260503013505 | 60 | 166 | 0.0 | 0.0 | 0.00 | 0.82 | 0.00 | 90 | 1012.1 |
| 20260503013004 | 60 | 166 | 0.0 | 3.0 | 0.00 | 0.82 | 0.00 | 90 | 1012.2 |
| 20260503012505 | 60 | 166 | 0.0 | 0.0 | 0.00 | 0.82 | 0.00 | 90 | 1012.4 |
| 20260503012005 | 60 | 166 | 0.0 | 3.0 | 0.00 | 0.82 | 0.00 | 90 | 1012.4 |
| 20260503011503 | 60 | 165 | 1.0 | 5.0 | 0.00 | 0.82 | 0.00 | 90 | 1012.4 |
| 20260503010504 | 60 | 165 | 1.0 | 3.0 | 0.00 | 0.82 | 0.00 | 90 | 1012.3 |
| 20260503010004 | 60 | 165 | 2.0 | 3.0 | 0.00 | 0.82 | 0.00 | 90 | 1012.4 |
| 20260503005504 | 60 | 165 | 3.0 | 7.0 | 0.00 | 0.82 | 0.00 | 90 | 1012.3 |
| 20260503005004 | 60 | 169 | 3.0 | 7.0 | 0.00 | 0.82 | 0.00 | 90 | 1012.3 |
| 20260503004505 | 59 | 167 | 3.0 | 6.0 | 0.00 | 0.82 | 0.00 | 90 | 1012.1 |
| 20260503004004 | 59 | 144 | 2.0 | 5.0 | 0.00 | 0.82 | 0.00 | 90 | 1012.1 |
| 20260503003505 | 59 | 142 | 2.0 | 5.0 | 0.00 | 0.82 | 0.00 | 90 | 1012.1 |
| 20260503003004 | 59 | 155 | 3.0 | 5.0 | 0.00 | 0.82 | 0.00 | 90 | 1012.1 |
| 20260503002504 | 59 | 156 | 3.0 | 6.0 | 0.00 | 0.82 | 0.00 | 90 | 1012.2 |
| 20260503002005 | 59 | 168 | 3.0 | 3.0 | 0.00 | 0.82 | 0.00 | 90 | 1012.3 |
| 20260503001504 | 59 | 168 | 2.0 | 7.0 | 0.00 | 0.82 | 0.00 | 90 | 1012.4 |
| 20260503001005 | 59 | 151 | 4.0 | 6.0 | 0.00 | 0.82 | 0.00 | 90 | 1012.4 |
| 20260503000504 | 59 | 155 | 5.0 | 9.0 | 0.00 | 0.82 | 0.00 | 90 | 1012.4 |
| 20260502235505 | 59 | 151 | 3.0 | 7.0 | 0.00 | 0.82 | 0.00 | 89 | 1012.5 |
| 20260502234505 | 59 | 160 | 4.0 | 7.0 | 0.00 | 0.82 | 0.00 | 89 | 1012.6 |
| 20260502234005 | 59 | 164 | 4.0 | 7.0 | 0.00 | 0.82 | 0.00 | 89 | 1012.7 |
| 20260502232505 | 59 | 174 | 2.0 | 6.0 | 0.00 | 0.82 | 0.00 | 89 | 1012.6 |
| 20260502231004 | 60 | 172 | 1.0 | 3.0 | 0.00 | 0.82 | 0.00 | 89 | 1012.8 |
| 20260502230505 | 60 | 158 | 2.0 | 5.0 | 0.00 | 0.82 | 0.00 | 89 | 1012.8 |
| 20260502230004 | 60 | 160 | 1.0 | 3.0 | 0.00 | 0.82 | 0.00 | 89 | 1012.8 |
| 20260502225504 | 60 | 158 | 2.0 | 6.0 | 0.00 | 0.82 | 0.00 | 89 | 1012.7 |
| 20260502224505 | 59 | 162 | 2.0 | 3.0 | 0.00 | 0.82 | 0.00 | 89 | 1012.7 |
| 20260502224003 | 59 | 137 | 2.0 | 5.0 | 0.00 | 0.82 | 0.00 | 89 | 1012.6 |
| 20260502223504 | 59 | 158 | 2.0 | 5.0 | 0.14 | 0.82 | 0.00 | 90 | 1012.6 |
| 20260502222504 | 60 | 154 | 2.0 | 3.0 | 0.24 | 0.82 | 0.00 | 90 | 1012.6 |
| 20260502222004 | 60 | 141 | 2.0 | 5.0 | 0.32 | 0.82 | 0.00 | 90 | 1012.6 |
| 20260502221504 | 60 | 188 | 1.0 | 3.0 | 0.34 | 0.82 | 0.00 | 90 | 1012.6 |
| 20260502221006 | 60 | 188 | 2.0 | 3.0 | 0.35 | 0.82 | 0.00 | 89 | 1012.5 |
| 20260502220504 | 60 | 197 | 1.0 | 3.0 | 0.39 | 0.82 | 0.00 | 89 | 1012.5 |
| 20260502220004 | 60 | 200 | 1.0 | 3.0 | 0.46 | 0.82 | 0.00 | 90 | 1012.6 |
| 20260502215506 | 60 | 113 | 0.0 | 3.0 | 0.46 | 0.82 | 0.82 | 90 | 1012.5 |
| 20260502215004 | 61 | 116 | 2.0 | 5.0 | 0.46 | 0.82 | 0.82 | 90 | 1012.6 |
| 20260502214504 | 61 | 169 | 3.0 | 8.0 | 0.46 | 0.82 | 0.82 | 90 | 1012.6 |
| 20260502214004 | 61 | 174 | 2.0 | 9.0 | 0.46 | 0.82 | 0.82 | 90 | 1012.8 |
| 20260502213004 | 60 | 290 | 6.0 | 12.0 | 0.29 | 0.65 | 0.65 | 89 | 1012.9 |
| 20260502212503 | 59 | 231 | 4.0 | 9.0 | 0.24 | 0.60 | 0.60 | 89 | 1013.2 |
| 20260502212004 | 59 | 234 | 2.0 | 8.0 | 0.14 | 0.50 | 0.50 | 89 | 1013.2 |
| 20260502211504 | 59 | 200 | 0.0 | 3.0 | 0.12 | 0.48 | 0.48 | 89 | 1013.2 |
| 20260502211003 | 59 | 87 | 2.0 | 6.0 | 0.11 | 0.47 | 0.47 | 89 | 1013.1 |
| 20260502210505 | 59 | 107 | 2.0 | 7.0 | 0.10 | 0.46 | 0.46 | 89 | 1013.4 |
| 20260502210004 | 59 | 127 | 2.0 | 5.0 | 0.00 | 0.36 | 0.36 | 89 | 1013.1 |
| 20260502205504 | 59 | 71 | 2.0 | 3.0 | 0.00 | 0.36 | 0.36 | 89 | 1013.0 |
| 20260502205008 | 59 | 47 | 1.0 | 3.0 | 0.01 | 0.36 | 0.36 | 89 | 1013.0 |
| 20260502204505 | 60 | 46 | 2.0 | 5.0 | 0.01 | 0.36 | 0.36 | 89 | 1013.1 |
| 20260502204004 | 60 | 44 | 0.0 | 3.0 | 0.02 | 0.36 | 0.36 | 89 | 1013.2 |
| 20260502203504 | 59 | 38 | 0.0 | 2.0 | 0.03 | 0.36 | 0.36 | 89 | 1013.3 |
| 20260502203004 | 59 | 38 | 0.0 | 2.0 | 0.06 | 0.36 | 0.36 | 89 | 1013.2 |
| 20260502202504 | 59 | 38 | 1.0 | 3.0 | 0.19 | 0.36 | 0.36 | 89 | 1013.3 |
| 20260502202005 | 59 | 37 | 0.0 | 3.0 | 0.32 | 0.36 | 0.36 | 89 | 1013.3 |
| 20260502201503 | 59 | 37 | 0.0 | 1.0 | 0.33 | 0.36 | 0.36 | 89 | 1013.4 |
| 20260502201004 | 59 | 37 | 0.0 | 3.0 | 0.33 | 0.36 | 0.36 | 90 | 1013.5 |
| 20260502200004 | 60 | 26 | 0.0 | 3.0 | 0.36 | 0.36 | 0.36 | 90 | 1013.5 |
| 20260502194503 | 60 | 67 | 2.0 | 5.0 | 0.35 | 0.35 | 0.35 | 91 | 1013.8 |
| 20260502194005 | 60 | 24 | 3.0 | 5.0 | 0.34 | 0.34 | 0.34 | 92 | 1014.1 |
| 20260502193004 | 61 | 25 | 2.0 | 8.0 | 0.30 | 0.30 | 0.30 | 91 | 1014.9 |
| 20260502192505 | 62 | 165 | 9.0 | 20.0 | 0.17 | 0.17 | 0.17 | 91 | 1015.2 |
| 20260502192004 | 63 | 171 | 7.0 | 20.0 | 0.04 | 0.04 | 0.04 | 90 | 1014.3 |
| 20260502191004 | 65 | 295 | 9.0 | 18.0 | 0.03 | 0.03 | 0.03 | 87 | 1013.4 |
| 20260502190004 | 70 | 246 | 8.0 | 20.0 | 0.00 | 0.00 | 0.00 | 78 | 1013.4 |
| 20260502185505 | 70 | 244 | 2.0 | 5.0 | 0.00 | 0.00 | 0.00 | 77 | 1013.3 |
| 20260502185004 | 71 | 244 | 1.0 | 3.0 | 0.00 | 0.00 | 0.00 | 76 | 1013.3 |
| 20260502184507 | 71 | 244 | 2.0 | 3.0 | 0.00 | 0.00 | 0.00 | 76 | 1013.3 |
| 20260502184004 | 71 | 244 | 0.0 | 3.0 | 0.00 | 0.00 | 0.00 | 75 | 1013.2 |
| 20260502183506 | 71 | 244 | 1.0 | 3.0 | 0.00 | 0.00 | 0.00 | 75 | 1013.4 |
| 20260502182504 | 72 | 207 | 2.0 | 6.0 | 0.00 | 0.00 | 0.00 | 73 | 1013.2 |
| 20260502182007 | 73 | 191 | 3.0 | 5.0 | 0.00 | 0.00 | 0.00 | 72 | 1013.1 |
| 20260502181504 | 73 | 186 | 1.0 | 3.0 | 0.00 | 0.00 | 0.00 | 71 | 1013.1 |
| 20260502181004 | 74 | 184 | 1.0 | 3.0 | 0.00 | 0.00 | 0.00 | 69 | 1013.1 |
| 20260502170504 | 76 | 184 | 1.0 | 3.0 | 0.00 | 0.00 | 0.00 | 61 | 1013.5 |
| 20260502164005 | 77 | 184 | 2.0 | 3.0 | 0.00 | 0.00 | 0.00 | 59 | 1013.7 |
| 20260502163504 | 77 | 184 | 1.0 | 2.0 | 0.00 | 0.00 | 0.00 | 60 | 1013.8 |
| 20260502163004 | 77 | 184 | 1.0 | 3.0 | 0.00 | 0.00 | 0.00 | 60 | 1014.0 |
| 20260502162004 | 78 | 188 | 0.0 | 3.0 | 0.00 | 0.00 | 0.00 | 58 | 1014.1 |
| 20260502161504 | 77 | 188 | 1.0 | 3.0 | 0.00 | 0.00 | 0.00 | 58 | 1014.1 |
| 20260502161005 | 78 | 188 | 2.0 | 3.0 | 0.00 | 0.00 | 0.00 | 58 | 1014.2 |
| 20260502160506 | 77 | 187 | 1.0 | 3.0 | 0.00 | 0.00 | 0.00 | 59 | 1014.4 |
| 20260502152003 | 78 | 188 | 2.0 | 7.0 | 0.00 | 0.00 | 0.00 | 58 | 1014.8 |
| 20260502151503 | 78 | 188 | 3.0 | 6.0 | 0.00 | 0.00 | 0.00 | 59 | 1014.9 |
| 20260502151005 | 77 | 150 | 0.0 | 5.0 | 0.00 | 0.00 | 0.00 | 61 | 1015.1 |
| 20260502150504 | 76 | 157 | 1.0 | 7.0 | 0.00 | 0.00 | 0.00 | 61 | 1015.2 |
| 20260502130504 | 74 | 213 | 1.0 | 5.0 | 0.00 | 0.00 | 0.00 | 66 | 1016.8 |
| 20260502123004 | 73 | 222 | 2.0 | 7.0 | 0.00 | 0.00 | 0.00 | 67 | 1017.2 |
| 20260502122504 | 73 | 211 | 3.0 | 6.0 | 0.00 | 0.00 | 0.00 | 66 | 1017.4 |
| 20260502121503 | 73 | 190 | 2.0 | 5.0 | 0.00 | 0.00 | 0.00 | 69 | 1017.5 |
| 20260502121005 | 72 | 188 | 3.0 | 7.0 | 0.00 | 0.00 | 0.00 | 71 | 1017.5 |
| 20260502115503 | 72 | 215 | 3.0 | 5.0 | 0.00 | 0.00 | 0.00 | 70 | 1017.7 |
| 20260502115003 | 72 | 211 | 1.0 | 5.0 | 0.00 | 0.00 | 0.00 | 70 | 1017.8 |
| 20260502114004 | 71 | 210 | 1.0 | 5.0 | 0.00 | 0.00 | 0.00 | 73 | 1017.9 |
| 20260502113004 | 71 | 207 | 2.0 | 7.0 | 0.00 | 0.00 | 0.00 | 75 | 1018.0 |
| 20260502112504 | 70 | 216 | 5.0 | 9.0 | 0.00 | 0.00 | 0.00 | 74 | 1018.1 |
| 20260502112006 | 70 | 259 | 2.0 | 7.0 | 0.00 | 0.00 | 0.00 | 76 | 1018.2 |
| 20260502111504 | 71 | 281 | 5.0 | 9.0 | 0.00 | 0.00 | 0.00 | 75 | 1018.2 |
| 20260502111004 | 71 | 274 | 2.0 | 8.0 | 0.00 | 0.00 | 0.00 | 75 | 1018.2 |
| 20260502110004 | 70 | 221 | 1.0 | 7.0 | 0.00 | 0.00 | 0.00 | 76 | 1018.3 |
| 20260502105504 | 70 | 223 | 3.0 | 7.0 | 0.00 | 0.00 | 0.00 | 76 | 1018.3 |
| 20260502105004 | 70 | 217 | 0.0 | 5.0 | 0.00 | 0.00 | 0.00 | 77 | 1018.4 |
| 20260502104504 | 70 | 217 | 2.0 | 7.0 | 0.00 | 0.00 | 0.00 | 76 | 1018.4 |
| 20260502103506 | 69 | 277 | 1.0 | 6.0 | 0.00 | 0.00 | 0.00 | 78 | 1018.5 |
| 20260502103004 | 69 | 278 | 3.0 | 7.0 | 0.00 | 0.00 | 0.00 | 78 | 1018.6 |
| 20260502102505 | 69 | 283 | 3.0 | 6.0 | 0.00 | 0.00 | 0.00 | 79 | 1018.6 |
| 20260502101505 | 69 | 271 | 2.0 | 5.0 | 0.00 | 0.00 | 0.00 | 79 | 1018.6 |
| 20260502100504 | 69 | 243 | 1.0 | 6.0 | 0.00 | 0.00 | 0.00 | 77 | 1018.7 |
| 20260502091504 | 68 | 243 | 3.0 | 7.0 | 0.00 | 0.00 | 0.00 | 78 | 1018.9 |
| 20260502090504 | 68 | 207 | 3.0 | 7.0 | 0.00 | 0.00 | 0.00 | 79 | 1019.0 |
| 20260502071505 | 61 | 236 | 2.0 | 5.0 | 0.00 | 0.00 | 0.00 | 86 | 1019.2 |
| 20260502071004 | 61 | 236 | 3.0 | 6.0 | 0.00 | 0.00 | 0.00 | 86 | 1019.1 |
| 20260502070503 | 61 | 236 | 1.0 | 3.0 | 0.00 | 0.00 | 0.00 | 86 | 1019.1 |
| 20260502065504 | 61 | 236 | 0.0 | 0.0 | 0.00 | 0.00 | 0.00 | 86 | 1019.0 |
| 20260502065004 | 61 | 236 | 0.0 | 2.0 | 0.00 | 0.00 | 0.00 | 86 | 1019.0 |
| 20260502064504 | 61 | 236 | 0.0 | 2.0 | 0.00 | 0.00 | 0.00 | 86 | 1019.1 |
| 20260502064005 | 61 | 236 | 0.0 | 3.0 | 0.00 | 0.00 | 0.00 | 87 | 1019.1 |
| 20260502063504 | 60 | 236 | 1.0 | 3.0 | 0.00 | 0.00 | 0.00 | 88 | 1019.1 |
| 20260502063004 | 60 | 236 | 1.0 | 3.0 | 0.00 | 0.00 | 0.00 | 88 | 1019.1 |
| 20260502062504 | 59 | 236 | 1.0 | 3.0 | 0.00 | 0.00 | 0.00 | 88 | 1019.0 |
| 20260502062003 | 59 | 236 | 1.0 | 3.0 | 0.00 | 0.00 | 0.00 | 89 | 1019.1 |
| 20260502061503 | 59 | 236 | 0.0 | 3.0 | 0.00 | 0.00 | 0.00 | 89 | 1019.1 |
| 20260502061004 | 59 | 236 | 0.0 | 3.0 | 0.00 | 0.00 | 0.00 | 89 | 1019.2 |
| 20260502060504 | 59 | 236 | 0.0 | 0.0 | 0.00 | 0.00 | 0.00 | 90 | 1019.2 |
| 20260502055504 | 58 | 236 | 0.0 | 1.0 | 0.00 | 0.00 | 0.00 | 90 | 1019.2 |
| 20260502055004 | 58 | 236 | 1.0 | 3.0 | 0.00 | 0.00 | 0.00 | 90 | 1019.2 |
| 20260502054003 | 58 | 236 | 2.0 | 3.0 | 0.00 | 0.00 | 0.00 | 90 | 1019.1 |
| 20260502053503 | 58 | 236 | 0.0 | 0.0 | 0.00 | 0.00 | 0.00 | 90 | 1019.1 |
| 20260502053003 | 58 | 236 | 1.0 | 2.0 | 0.00 | 0.00 | 0.00 | 89 | 1018.9 |
| 20260502052503 | 58 | 236 | 0.0 | 0.0 | 0.00 | 0.00 | 0.00 | 89 | 1018.8 |
| 20260502052004 | 57 | 236 | 0.0 | 0.0 | 0.00 | 0.00 | 0.00 | 89 | 1018.7 |
| 20260502051005 | 57 | 236 | 0.0 | 1.0 | 0.00 | 0.00 | 0.00 | 88 | 1018.6 |
| 20260502050504 | 57 | 236 | 0.0 | 2.0 | 0.00 | 0.00 | 0.00 | 87 | 1018.5 |
| 20260502045006 | 57 | 236 | 0.0 | 0.0 | 0.00 | 0.00 | 0.00 | 85 | 1018.7 |
| 20260502044504 | 58 | 236 | 0.0 | 2.0 | 0.00 | 0.00 | 0.00 | 85 | 1018.7 |
| 20260502044004 | 58 | 236 | 0.0 | 2.0 | 0.00 | 0.00 | 0.00 | 85 | 1018.8 |
| 20260502043004 | 58 | 236 | 1.0 | 3.0 | 0.00 | 0.00 | 0.00 | 82 | 1019.1 |
| 20260502042504 | 58 | 236 | 2.0 | 3.0 | 0.00 | 0.00 | 0.00 | 81 | 1019.1 |
| 20260502041503 | 59 | 236 | 2.0 | 6.0 | 0.00 | 0.00 | 0.00 | 78 | 1019.1 |
| 20260502040505 | 60 | 228 | 2.0 | 5.0 | 0.00 | 0.00 | 0.00 | 75 | 1019.1 |
| 20260502040006 | 60 | 227 | 3.0 | 5.0 | 0.00 | 0.00 | 0.00 | 73 | 1019.2 |
| 20260502035505 | 60 | 226 | 2.0 | 6.0 | 0.00 | 0.00 | 0.00 | 69 | 1019.4 |
| 20260502034505 | 60 | 190 | 1.0 | 6.0 | 0.00 | 0.00 | 0.00 | 67 | 1019.3 |
| 20260502034006 | 60 | 186 | 3.0 | 5.0 | 0.00 | 0.00 | 0.00 | 66 | 1019.2 |
| 20260502033003 | 61 | 180 | 1.0 | 6.0 | 0.00 | 0.00 | 0.00 | 63 | 1019.2 |
| 20260502032505 | 61 | 180 | 1.0 | 5.0 | 0.00 | 0.00 | 0.00 | 62 | 1019.1 |
| 20260502032004 | 61 | 178 | 1.0 | 3.0 | 0.00 | 0.00 | 0.00 | 61 | 1019.0 |
| 20260502031506 | 61 | 178 | 2.0 | 5.0 | 0.00 | 0.00 | 0.00 | 61 | 1019.0 |
| 20260502031005 | 61 | 177 | 1.0 | 3.0 | 0.00 | 0.00 | 0.00 | 60 | 1019.0 |
| 20260502030503 | 61 | 177 | 0.0 | 3.0 | 0.00 | 0.00 | 0.00 | 59 | 1019.0 |
| 20260502030005 | 61 | 177 | 1.0 | 3.0 | 0.00 | 0.00 | 0.00 | 59 | 1018.9 |
| 20260502025504 | 61 | 177 | 1.0 | 5.0 | 0.00 | 0.00 | 0.00 | 58 | 1018.8 |
| 20260502025005 | 62 | 176 | 2.0 | 6.0 | 0.00 | 0.00 | 0.00 | 58 | 1018.8 |
| 20260502024504 | 62 | 175 | 2.0 | 5.0 | 0.00 | 0.00 | 0.00 | 57 | 1018.7 |
| 20260502024005 | 62 | 175 | 2.0 | 5.0 | 0.00 | 0.00 | 0.00 | 57 | 1018.8 |
| 20260502023504 | 62 | 175 | 1.0 | 3.0 | 0.00 | 0.00 | 0.00 | 57 | 1018.8 |
| 20260502023003 | 62 | 175 | 2.0 | 5.0 | 0.00 | 0.00 | 0.00 | 57 | 1018.8 |
| 20260502022005 | 62 | 175 | 2.0 | 5.0 | 0.00 | 0.00 | 0.00 | 57 | 1019.0 |